星链-5853 (STARLINK-5853 )

导读

STARLINK-5853是由美国于2023年6月12日发射的星链卫星,隶属于SpaceX公司的星链互联网星座项目。星链项目旨在构建全球卫星互联网,为偏远地区、海上、航空等场景提供低延迟宽带服务,该卫星的发射是星链星座扩容部署的组成部分,推进全球卫星互联网络的覆盖进程。

基本信息
目录编号:
56881
目录名称:
STARLINK-5853
国际标识:
2023-083F
轨道中心:
EARTH
卫星名称:
星链-5853
卫星全名:
星链-5853 (STARLINK-5853 )
卫星状态:
在轨 (已飞行1099 天)
发射日期:
2023-06-12 UTC
国别 :
美国 (US)
星等 :
--
轨道信息
数据来源 国际轨道数据
星历时间: 2026-06-14T07:45:51+0800
1天前
查看轨道信息
半长轴: 6861.193km
偏心率: 0.0002019
轨道倾角: 43.004°
近地点辐角 284.036°
升交点赤经 261.743°
平近点角 76.027°
近地点: 481.67km
远地点: 484.442km
周期: 94.267分钟
每日圈数: 15.275778
详细信息
固有亮度:
5
最大亮度:
2.4
卫星平台:
Starlink v1.5
覆盖范围:
全球
运营商:
太空探索技术公司
运营商所在国:
美国
制造商(研发单位):
太空探索技术公司
制造商所在国:
美国
使用方式:
暂无
卫星简介
星链(Starlink)计划是由太空探索技术公司(SpaceX)提出的一个巨型低轨卫星互联网星座项目,计划在2019年至2024年间在太空搭建由约1.2万颗卫星组成的“星链”网络,其中1584颗将部署在地球上空550千米处的近地轨道,并从2020年开始工作。该卫星仍在工作。
2D轨道图
3D轨道图
轨道高度分析图
轨道倾角分析图
轨道综合分析图
查看轨道综合分析图